Home > Weather > Bakersfield > Past weeks

Flag for U.S.A. Weather for the Past 2 Weeks in Bakersfield, California, U.S.A.

Now
44 °F

Fog.


Feels Like: 42 °F
Forecast: 42 / 68 °F
Wind: 5 mph from East

Location: Meadows Field

Current Time: Feb 7, 2016 at 5:09:58 AM

Latest Report: Feb 7, 2016 at 3:54 AM


Visibility: 4 mi

Pressure: 30.30 "Hg

Humidity: 85%

Dew point: 40 °F

Location of BakersfieldLocation

Historic Weather in Bakersfield — Graph

°F

Bakersfield Temperature Yesterday

Maximum temperature yesterday: 63 °F (at 2:54 PM)
Minimum temperature yesterday: 40 °F (at 7:04 AM)
Average temperature yesterday: 50 °F

High & Low Weather Summary for the Past Weeks

 TemperatureHumidityPressure
High68 °F (Jan 29, 1:54 PM)97% (Jan 31, 4:59 AM)30.46 "Hg (Jan 31, 4:59 AM)
Low34 °F (Feb 3, 6:54 AM)33% (Jan 29, 1:54 PM)29.65 "Hg (Jan 31, 11:54 AM)
Average49 °F71%30.22 "Hg
* Reported Jan 23 3:54 AM — Feb 7 3:54 AM, Bakersfield, Weather by CustomWeather, © 2016

Note: Actual official high and low records may vary slightly from our data, if they occured in-between our weather recording intervals... More about our weather records

Advertising

Bakersfield Weather History for the Previous 24 Hours

 ConditionsComfort  
Time TempWeatherWind HumidityBarometerVisibility
3:54 AM
Sun, Feb 7
44 °FFog.5 mph85%30.30 "Hg4 mi
2:54 AM44 °FClear.No wind82%30.31 "Hg4 mi
1:54 AM42 °FFog.3 mph85%30.32 "Hg4 mi
12:54 AM46 °FFog.No wind86%30.32 "Hg3 mi
11:54 PM
Sat, Feb 6
47 °FClear.5 mph83%30.33 "Hg4 mi
10:54 PM49 °FClear.6 mph80%30.33 "Hg4 mi
9:54 PM49 °FClear.5 mph77%30.33 "Hg4 mi
8:54 PM48 °FClear.No wind77%30.33 "Hg4 mi
7:54 PM50 °FClear.No wind71%30.32 "Hg5 mi
6:54 PM56 °FClear.No wind62%30.31 "Hg5 mi
5:54 PM57 °FClear.3 mph62%30.31 "Hg7 mi
4:54 PM62 °FSunny.No wind54%30.30 "Hg6 mi
3:54 PM63 °FSunny.No wind50%30.30 "Hg5 mi
2:54 PM63 °FSunny.5 mph50%30.31 "Hg5 mi
1:54 PM61 °FSunny.No wind54%30.33 "Hg5 mi
12:54 PM59 °FSunny.No wind56%30.35 "Hg4 mi
11:54 AM55 °FSunny.No wind64%30.40 "Hg4 mi
10:54 AM53 °FSunny.5 mph69%30.42 "Hg4 mi
9:54 AM48 °FSunny.3 mph77%30.44 "Hg3 mi
8:54 AM44 °FSunny.7 mph82%30.45 "Hg2 mi
7:54 AM42 °FFog.7 mph85%30.43 "Hg2 mi
7:04 AM40 °FSunny.No wind83%30.41 "Hg2 mi
6:54 AM41 °FFog.No wind86%30.41 "Hg3 mi
5:54 AM41 °FFog.5 mph86%30.38 "Hg3 mi
Weather by CustomWeather, © 2016

See weather overviewHow to use our weather pages